Station Historical Data
Daily Summary for December 11, 2017 Units:  English    Metric   Both
« Previous Day
Next Day »
Daily Weekly Monthly Yearly Custom
  High: Low: Average:
Temperature: 27.8 °F 24.5 °F 26.4 °F
Dew Point: 24.6 °F 19.8 °F 21.6 °F
Humidity: 88% 76% 82%
Wind Speed: 5.0mph 0.0mph 1.4mph
Wind Gust: 10.0mph - -
Wind- - South
Pressure: 30.06 in 29.72 in -
Precipitation: 0.00 in    
Historical Graphs
 
 
Tabular Data for December 11, 2017
Time Temperature Dew Point Pressure Wind Wind Speed Wind Gust Humidity Rainfall Rate (Hourly)
00:04 27.5 °F 21.2 °F 29.91 in WSW 2.0 mph 6.0 mph 77% 0.00 in
00:09 27.5 °F 21.2 °F 29.91 in SW 2.0 mph 6.0 mph 77% 0.00 in
00:14 27.6 °F 21.3 °F 29.91 in WSW 2.0 mph 6.0 mph 77% 0.00 in
00:19 27.6 °F 21.3 °F 29.91 in WSW 2.0 mph 6.0 mph 77% 0.00 in
00:25 27.5 °F 21.2 °F 29.91 in WSW 2.0 mph 5.0 mph 77% 0.00 in
00:34 27.6 °F 21.3 °F 29.91 in SW 3.0 mph 6.0 mph 77% 0.00 in
00:40 27.5 °F 21.2 °F 29.91 in WSW 3.0 mph 6.0 mph 77% 0.00 in
00:44 27.5 °F 21.2 °F 29.91 in WSW 3.0 mph 6.0 mph 77% 0.00 in
00:50 27.5 °F 21.2 °F 29.91 in West 3.0 mph 6.0 mph 77% 0.00 in
00:54 27.6 °F 21.3 °F 29.91 in West 3.0 mph 5.0 mph 77% 0.00 in
01:04 27.6 °F 21.3 °F 29.91 in SW 1.0 mph 4.0 mph 77% 0.00 in
01:09 27.6 °F 21.6 °F 29.91 in West 4.0 mph 5.0 mph 78% 0.00 in
01:14 27.6 °F 21.6 °F 29.92 in West 3.0 mph 7.0 mph 78% 0.00 in
01:19 27.6 °F 21.6 °F 29.92 in West 4.0 mph 7.0 mph 78% 0.00 in
01:24 27.6 °F 21.6 °F 29.92 in WNW 4.0 mph 6.0 mph 78% 0.00 in
01:30 27.4 °F 21.7 °F 29.92 in WNW 3.0 mph 8.0 mph 79% 0.00 in
01:39 27.1 °F 22.0 °F 29.93 in West 3.0 mph 7.0 mph 81% 0.00 in
01:44 26.9 °F 21.8 °F 29.93 in West 4.0 mph 7.0 mph 81% 0.00 in
01:49 26.9 °F 22.1 °F 29.93 in West 4.0 mph 8.0 mph 82% 0.00 in
01:55 26.8 °F 22.3 °F 29.93 in West 3.0 mph 8.0 mph 83% 0.00 in
01:59 26.7 °F 22.2 °F 29.93 in West 3.0 mph 7.0 mph 83% 0.00 in
02:04 26.7 °F 22.5 °F 29.94 in WSW 3.0 mph 6.0 mph 84% 0.00 in
02:09 26.7 °F 22.5 °F 29.94 in West 3.0 mph 7.0 mph 84% 0.00 in
02:14 26.7 °F 22.8 °F 29.94 in West 3.0 mph 8.0 mph 85% 0.00 in
02:29 26.6 °F 22.7 °F 29.95 in West 4.0 mph 10.0 mph 85% 0.00 in
02:39 26.5 °F 22.9 °F 29.95 in WSW 3.0 mph 8.0 mph 86% 0.00 in
02:49 26.5 °F 22.9 °F 29.95 in West 3.0 mph 6.0 mph 86% 0.00 in
02:59 26.5 °F 22.9 °F 29.96 in West 2.0 mph 8.0 mph 86% 0.00 in
03:04 26.5 °F 22.9 °F 29.96 in WNW 2.0 mph 7.0 mph 86% 0.00 in
03:14 26.5 °F 22.9 °F 29.96 in West 2.0 mph 7.0 mph 86% 0.00 in
03:19 26.6 °F 23.0 °F 29.96 in West 2.0 mph 7.0 mph 86% 0.00 in
03:24 26.5 °F 22.9 °F 29.96 in West 3.0 mph 6.0 mph 86% 0.00 in
03:29 26.5 °F 22.9 °F 29.96 in West 3.0 mph 6.0 mph 86% 0.00 in
03:30 26.5 °F 22.9 °F 29.96 in WNW 2.0 mph 4.0 mph 86% 0.00 in
03:40 26.4 °F 22.5 °F 29.96 in WNW 4.0 mph 4.0 mph 85% 0.00 in
03:45 26.3 °F 22.4 °F 29.96 in Calm   4.0 mph 85% 0.00 in
03:49 26.3 °F 22.4 °F 29.96 in NW 2.0 mph 4.0 mph 85% 0.00 in
03:59 26.3 °F 22.4 °F 29.97 in West 2.0 mph 6.0 mph 85% 0.00 in
04:14 26.2 °F 22.3 °F 29.97 in West 1.0 mph 5.0 mph 85% 0.00 in
04:19 26.2 °F 22.3 °F 29.97 in Calm   5.0 mph 85% 0.00 in
04:24 26.2 °F 22.3 °F 29.97 in West 2.0 mph 5.0 mph 85% 0.00 in
04:29 26.2 °F 22.3 °F 29.97 in West 2.0 mph 5.0 mph 85% 0.00 in
04:40 26.3 °F 22.1 °F 29.98 in WNW 1.0 mph 7.0 mph 84% 0.00 in
04:45 26.3 °F 22.1 °F 29.98 in WNW 3.0 mph 5.0 mph 84% 0.00 in
04:54 26.4 °F 22.2 °F 29.98 in West 2.0 mph 6.0 mph 84% 0.00 in
04:59 26.3 °F 22.1 °F 29.98 in West 3.0 mph 5.0 mph 84% 0.00 in
05:04 26.3 °F 21.8 °F 29.99 in WNW 2.0 mph 5.0 mph 83% 0.00 in
05:09 26.3 °F 21.8 °F 29.99 in West 2.0 mph 6.0 mph 83% 0.00 in
05:14 26.3 °F 21.8 °F 29.99 in West 2.0 mph 5.0 mph 83% 0.00 in
05:19 26.2 °F 21.7 °F 29.99 in WNW 1.0 mph 4.0 mph 83% 0.00 in
05:24 26.1 °F 21.6 °F 29.99 in WNW 1.0 mph 4.0 mph 83% 0.00 in
05:29 26.1 °F 21.6 °F 30.00 in WNW 2.0 mph 4.0 mph 83% 0.00 in
05:34 26.1 °F 21.6 °F 30.00 in WNW 3.0 mph 6.0 mph 83% 0.00 in
05:39 26.1 °F 21.6 °F 30.00 in WNW 3.0 mph 7.0 mph 83% 0.00 in
05:44 26.2 °F 21.5 °F 30.00 in West 3.0 mph 7.0 mph 82% 0.00 in
05:49 26.2 °F 21.5 °F 30.00 in West 2.0 mph 6.0 mph 82% 0.00 in
05:54 26.2 °F 21.5 °F 30.00 in West 3.0 mph 6.0 mph 82% 0.00 in
05:59 26.1 °F 21.4 °F 30.01 in WNW 3.0 mph 6.0 mph 82% 0.00 in
06:04 26.1 °F 21.1 °F 30.01 in WNW 2.0 mph 5.0 mph 81% 0.00 in
06:09 26.2 °F 21.2 °F 30.01 in WNW 3.0 mph 4.0 mph 81% 0.00 in
06:14 26.3 °F 21.3 °F 30.01 in WNW 1.0 mph 6.0 mph 81% 0.00 in
06:19 26.3 °F 21.3 °F 30.01 in NW 3.0 mph 5.0 mph 81% 0.00 in
06:29 26.4 °F 21.4 °F 30.02 in NW 5.0 mph 7.0 mph 81% 0.00 in
06:34 26.5 °F 21.5 °F 30.02 in NW 3.0 mph 7.0 mph 81% 0.00 in
06:39 26.3 °F 21.3 °F 30.02 in NNW 3.0 mph 8.0 mph 81% 0.00 in
06:49 25.8 °F 20.8 °F 30.03 in NNW 3.0 mph 10.0 mph 81% 0.00 in
06:54 25.5 °F 20.5 °F 30.03 in NNW 4.0 mph 5.0 mph 81% 0.00 in
07:09 25.0 °F 20.3 °F 30.03 in NNW 1.0 mph 4.0 mph 82% 0.00 in
07:19 24.8 °F 20.4 °F 30.03 in NNW 1.0 mph 4.0 mph 83% 0.00 in
07:39 24.6 °F 20.2 °F 30.03 in NNW 2.0 mph 4.0 mph 83% 0.00 in
07:49 24.5 °F 20.1 °F 30.04 in North 2.0 mph 5.0 mph 83% 0.00 in
07:54 24.5 °F 19.8 °F 30.04 in NNW 1.0 mph 3.0 mph 82% 0.00 in
07:59 24.5 °F 19.8 °F 30.05 in NNW 1.0 mph 3.0 mph 82% 0.00 in
08:05 24.6 °F 19.9 °F 30.05 in NNW 2.0 mph 3.0 mph 82% 0.00 in
08:09 24.7 °F 20.0 °F 30.05 in NNW 2.0 mph 4.0 mph 82% 0.00 in
08:14 24.9 °F 20.2 °F 30.05 in NNW 1.0 mph 4.0 mph 82% 0.00 in
08:19 25.1 °F 20.4 °F 30.05 in NNW 1.0 mph 5.0 mph 82% 0.00 in
08:29 25.1 °F 20.1 °F 30.05 in NNW 1.0 mph 4.0 mph 81% 0.00 in
08:34 25.1 °F 20.1 °F 30.06 in Calm   5.0 mph 81% 0.00 in
08:39 25.1 °F 20.1 °F 30.06 in NNW 1.0 mph 6.0 mph 81% 0.00 in
08:44 25.2 °F 20.2 °F 30.05 in NNW 2.0 mph 3.0 mph 81% 0.00 in
08:49 25.2 °F 20.2 °F 30.05 in North 1.0 mph 4.0 mph 81% 0.00 in
08:54 25.2 °F 20.2 °F 30.06 in North 2.0 mph 4.0 mph 81% 0.00 in
08:59 25.3 °F 20.3 °F 30.06 in NNE 2.0 mph 4.0 mph 81% 0.00 in
09:04 25.4 °F 20.4 °F 30.06 in NNE 2.0 mph 5.0 mph 81% 0.00 in
09:14 25.6 °F 20.3 °F 30.05 in NE 2.0 mph 4.0 mph 80% 0.00 in
09:19 25.6 °F 20.3 °F 30.06 in NE 2.0 mph 5.0 mph 80% 0.00 in
09:24 25.7 °F 20.1 °F 30.06 in NE 2.0 mph 3.0 mph 79% 0.00 in
09:29 25.8 °F 20.5 °F 30.06 in ENE 2.0 mph 5.0 mph 80% 0.00 in
09:39 25.8 °F 20.2 °F 30.06 in Calm   2.0 mph 79% 0.00 in
09:44 25.9 °F 20.3 °F 30.06 in Calm   2.0 mph 79% 0.00 in
09:49 26.0 °F 20.4 °F 30.06 in Calm   3.0 mph 79% 0.00 in
10:09 26.2 °F 20.3 °F 30.06 in Calm     78% 0.00 in
10:14 26.3 °F 20.1 °F 30.06 in Calm     77% 0.00 in
10:19 26.3 °F 20.4 °F 30.06 in Calm     78% 0.00 in
10:24 26.7 °F 20.8 °F 30.06 in ENE 1.0 mph 3.0 mph 78% 0.00 in
10:34 26.7 °F 20.5 °F 30.06 in ENE 1.0 mph 3.0 mph 77% 0.00 in
10:44 26.4 °F 20.2 °F 30.05 in Calm   2.0 mph 77% 0.00 in
10:49 26.3 °F 20.1 °F 30.05 in Calm   2.0 mph 77% 0.00 in
10:54 26.5 °F 20.3 °F 30.05 in Calm   1.0 mph 77% 0.00 in
10:59 26.3 °F 20.1 °F 30.05 in East 2.0 mph 3.0 mph 77% 0.00 in
11:04 26.4 °F 20.2 °F 30.04 in East 1.0 mph 5.0 mph 77% 0.00 in
11:09 26.3 °F 20.1 °F 30.04 in East 1.0 mph 5.0 mph 77% 0.00 in
11:19 26.5 °F 20.3 °F 30.03 in East 1.0 mph 3.0 mph 77% 0.00 in
11:29 26.8 °F 20.2 °F 30.03 in East 1.0 mph 2.0 mph 76% 0.00 in
11:34 26.8 °F 20.2 °F 30.03 in East 2.0 mph 3.0 mph 76% 0.00 in
11:39 26.8 °F 20.2 °F 30.03 in Calm   3.0 mph 76% 0.00 in
11:44 26.9 °F 20.3 °F 30.03 in East 1.0 mph 2.0 mph 76% 0.00 in
11:54 26.7 °F 20.1 °F 30.02 in East 1.0 mph 3.0 mph 76% 0.00 in
11:59 26.7 °F 20.1 °F 30.02 in Calm     76% 0.00 in
12:09 26.6 °F 20.1 °F 30.02 in Calm     76% 0.00 in
12:14 26.6 °F 20.1 °F 30.02 in Calm     76% 0.00 in
12:24 26.6 °F 20.1 °F 30.01 in Calm     76% 0.00 in
12:29 26.7 °F 20.5 °F 30.01 in Calm     77% 0.00 in
12:39 26.7 °F 20.1 °F 30.00 in Calm   3.0 mph 76% 0.00 in
12:44 26.6 °F 20.1 °F 30.00 in Calm   3.0 mph 76% 0.00 in
12:49 26.6 °F 20.4 °F 30.00 in East 1.0 mph 3.0 mph 77% 0.00 in
12:54 26.6 °F 20.4 °F 30.00 in Calm   3.0 mph 77% 0.00 in
12:59 26.5 °F 20.3 °F 30.00 in Calm   3.0 mph 77% 0.00 in
13:04 26.4 °F 20.2 °F 30.00 in Calm     77% 0.00 in
13:09 26.5 °F 20.3 °F 30.00 in Calm     77% 0.00 in
13:14 26.6 °F 20.4 °F 30.00 in Calm     77% 0.00 in
13:24 26.8 °F 20.6 °F 29.99 in Calm     77% 0.00 in
13:29 26.8 °F 20.6 °F 29.99 in Calm   2.0 mph 77% 0.00 in
13:34 26.7 °F 20.5 °F 29.99 in Calm   2.0 mph 77% 0.00 in
13:39 26.7 °F 20.5 °F 29.99 in Calm     77% 0.00 in
13:54 26.7 °F 20.8 °F 29.99 in Calm   2.0 mph 78% 0.00 in
13:59 26.7 °F 21.1 °F 29.99 in NE 1.0 mph 4.0 mph 79% 0.00 in
14:04 26.8 °F 21.2 °F 29.99 in NE 2.0 mph 5.0 mph 79% 0.00 in
14:09 26.6 °F 21.0 °F 29.99 in NE 2.0 mph 5.0 mph 79% 0.00 in
14:14 26.4 °F 20.8 °F 29.98 in NE 3.0 mph 6.0 mph 79% 0.00 in
14:19 26.3 °F 20.7 °F 29.98 in NE 2.0 mph 6.0 mph 79% 0.00 in
14:24 26.2 °F 20.9 °F 29.98 in NE 2.0 mph 7.0 mph 80% 0.00 in
14:29 26.1 °F 20.8 °F 29.99 in NE 3.0 mph 6.0 mph 80% 0.00 in
14:34 26.2 °F 20.9 °F 29.98 in NE 3.0 mph 6.0 mph 80% 0.00 in
14:39 26.1 °F 20.8 °F 29.98 in NE 4.0 mph 6.0 mph 80% 0.00 in
14:49 26.3 °F 21.3 °F 29.97 in NE 3.0 mph 6.0 mph 81% 0.00 in
14:54 26.4 °F 21.4 °F 29.97 in NE 3.0 mph 5.0 mph 81% 0.00 in
14:59 26.5 °F 21.2 °F 29.96 in East 2.0 mph 5.0 mph 80% 0.00 in
15:04 26.5 °F 21.2 °F 29.97 in East 1.0 mph 3.0 mph 80% 0.00 in
15:09 26.4 °F 21.1 °F 29.97 in East 2.0 mph 7.0 mph 80% 0.00 in
15:14 26.4 °F 21.1 °F 29.97 in ENE 2.0 mph 7.0 mph 80% 0.00 in
15:19 26.4 °F 21.1 °F 29.96 in ENE 2.0 mph 6.0 mph 80% 0.00 in
15:29 26.4 °F 21.1 °F 29.96 in ENE 2.0 mph 6.0 mph 80% 0.00 in
15:34 26.4 °F 21.1 °F 29.96 in Calm   4.0 mph 80% 0.00 in
15:39 26.5 °F 21.2 °F 29.96 in Calm   3.0 mph 80% 0.00 in
15:54 26.5 °F 21.5 °F 29.96 in ENE 1.0 mph 4.0 mph 81% 0.00 in
15:59 26.5 °F 21.2 °F 29.96 in ENE 1.0 mph 5.0 mph 80% 0.00 in
16:04 26.5 °F 21.2 °F 29.96 in Calm   2.0 mph 80% 0.00 in
16:09 26.4 °F 21.1 °F 29.96 in ESE 1.0 mph 2.0 mph 80% 0.00 in
16:14 26.4 °F 20.8 °F 29.96 in SE 1.0 mph 4.0 mph 79% 0.00 in
16:19 26.4 °F 20.8 °F 29.95 in SSE 1.0 mph 4.0 mph 79% 0.00 in
16:34 26.3 °F 21.0 °F 29.95 in SE 1.0 mph 5.0 mph 80% 0.00 in
16:39 26.2 °F 21.2 °F 29.94 in SE 1.0 mph 2.0 mph 81% 0.00 in
16:44 26.3 °F 21.3 °F 29.95 in East 2.0 mph 3.0 mph 81% 0.00 in
16:49 26.1 °F 21.1 °F 29.94 in ESE 1.0 mph 3.0 mph 81% 0.00 in
16:59 25.9 °F 21.2 °F 29.94 in ENE 1.0 mph 5.0 mph 82% 0.00 in
17:04 25.9 °F 21.2 °F 29.93 in ENE 2.0 mph 7.0 mph 82% 0.00 in
17:14 25.7 °F 21.3 °F 29.93 in Calm   3.0 mph 83% 0.00 in
17:19 25.6 °F 21.2 °F 29.92 in East 2.0 mph 7.0 mph 83% 0.00 in
17:24 25.6 °F 21.2 °F 29.92 in East 2.0 mph 7.0 mph 83% 0.00 in
17:29 25.5 °F 21.1 °F 29.92 in ENE 2.0 mph 6.0 mph 83% 0.00 in
17:39 25.3 °F 21.1 °F 29.91 in East 1.0 mph 6.0 mph 84% 0.00 in
17:49 25.4 °F 21.2 °F 29.91 in ENE 2.0 mph 5.0 mph 84% 0.00 in
17:54 25.4 °F 21.2 °F 29.91 in ENE 2.0 mph 5.0 mph 84% 0.00 in
18:04 25.4 °F 21.2 °F 29.90 in East 2.0 mph 6.0 mph 84% 0.00 in
18:09 25.4 °F 21.2 °F 29.90 in East 2.0 mph 6.0 mph 84% 0.00 in
18:14 25.5 °F 21.6 °F 29.90 in ESE 1.0 mph 6.0 mph 85% 0.00 in
18:19 25.5 °F 21.6 °F 29.90 in East 1.0 mph 5.0 mph 85% 0.00 in
18:24 25.6 °F 21.7 °F 29.89 in East 1.0 mph 6.0 mph 85% 0.00 in
18:34 25.6 °F 21.7 °F 29.88 in Calm   5.0 mph 85% 0.00 in
18:39 25.5 °F 21.6 °F 29.88 in Calm   3.0 mph 85% 0.00 in
18:44 25.5 °F 21.6 °F 29.88 in Calm   4.0 mph 85% 0.00 in
18:49 25.5 °F 21.6 °F 29.88 in East 1.0 mph 5.0 mph 85% 0.00 in
18:54 25.4 °F 21.5 °F 29.88 in Calm   3.0 mph 85% 0.00 in
19:04 25.6 °F 21.7 °F 29.88 in Calm   2.0 mph 85% 0.00 in
19:14 25.7 °F 21.8 °F 29.87 in East 1.0 mph 5.0 mph 85% 0.00 in
19:19 25.8 °F 22.2 °F 29.87 in East 1.0 mph 5.0 mph 86% 0.00 in
19:24 25.7 °F 21.8 °F 29.86 in Calm   2.0 mph 85% 0.00 in
19:29 25.8 °F 22.2 °F 29.86 in Calm   3.0 mph 86% 0.00 in
19:34 25.8 °F 22.2 °F 29.85 in Calm   2.0 mph 86% 0.00 in
19:39 25.9 °F 22.3 °F 29.85 in East 1.0 mph 3.0 mph 86% 0.00 in
19:44 26.0 °F 22.4 °F 29.85 in East 1.0 mph 3.0 mph 86% 0.00 in
19:49 26.0 °F 22.4 °F 29.84 in Calm   3.0 mph 86% 0.00 in
19:59 26.1 °F 22.5 °F 29.84 in Calm   2.0 mph 86% 0.00 in
20:04 26.2 °F 22.3 °F 29.83 in ESE 2.0 mph 4.0 mph 85% 0.00 in
20:09 26.2 °F 22.3 °F 29.83 in ESE 1.0 mph 4.0 mph 85% 0.00 in
20:14 26.3 °F 22.4 °F 29.83 in ESE 1.0 mph 4.0 mph 85% 0.00 in
20:19 26.3 °F 22.4 °F 29.83 in Calm   3.0 mph 85% 0.00 in
20:24 26.4 °F 22.5 °F 29.82 in East 1.0 mph 5.0 mph 85% 0.00 in
20:29 26.4 °F 22.5 °F 29.82 in East 1.0 mph 5.0 mph 85% 0.00 in
20:34 26.5 °F 22.6 °F 29.82 in Calm   4.0 mph 85% 0.00 in
20:39 26.6 °F 22.7 °F 29.82 in Calm   3.0 mph 85% 0.00 in
20:44 26.6 °F 22.7 °F 29.82 in Calm   2.0 mph 85% 0.00 in
20:54 26.7 °F 22.8 °F 29.81 in Calm   5.0 mph 85% 0.00 in
20:59 26.8 °F 22.9 °F 29.81 in Calm   3.0 mph 85% 0.00 in
21:04 26.8 °F 22.9 °F 29.81 in ESE 4.0 mph 4.0 mph 85% 0.00 in
21:09 26.9 °F 23.0 °F 29.81 in Calm   4.0 mph 85% 0.00 in
21:14 26.9 °F 23.0 °F 29.81 in ESE 1.0 mph 4.0 mph 85% 0.00 in
21:19 26.9 °F 23.0 °F 29.80 in Calm   3.0 mph 85% 0.00 in
21:24 27.0 °F 23.1 °F 29.80 in Calm   3.0 mph 85% 0.00 in
21:29 27.0 °F 23.1 °F 29.80 in Calm     85% 0.00 in
21:39 27.2 °F 23.3 °F 29.79 in SE 1.0 mph 4.0 mph 85% 0.00 in
21:44 27.2 °F 23.3 °F 29.79 in Calm   3.0 mph 85% 0.00 in
21:49 27.3 °F 23.4 °F 29.79 in SE 1.0 mph 3.0 mph 85% 0.00 in
21:54 27.4 °F 23.5 °F 29.79 in SE 1.0 mph 4.0 mph 85% 0.00 in
22:04 27.4 °F 23.5 °F 29.79 in Calm     85% 0.00 in
22:09 27.4 °F 23.5 °F 29.78 in Calm     85% 0.00 in
22:19 27.5 °F 23.6 °F 29.78 in Calm     85% 0.00 in
22:24 27.5 °F 23.6 °F 29.77 in Calm     85% 0.00 in
22:34 27.4 °F 23.5 °F 29.77 in Calm     85% 0.00 in
22:39 27.4 °F 23.5 °F 29.77 in Calm     85% 0.00 in
22:44 27.5 °F 23.6 °F 29.76 in Calm     85% 0.00 in
22:49 27.5 °F 23.6 °F 29.76 in Calm     85% 0.00 in
22:54 27.5 °F 23.6 °F 29.76 in Calm     85% 0.00 in
22:59 27.6 °F 24.0 °F 29.75 in Calm     86% 0.00 in
23:09 27.6 °F 24.0 °F 29.75 in Calm     86% 0.00 in
23:14 27.6 °F 24.2 °F 29.75 in Calm     87% 0.00 in
23:19 27.7 °F 24.3 °F 29.75 in Calm     87% 0.00 in
23:24 27.7 °F 24.3 °F 29.75 in Calm     87% 0.00 in
23:29 27.7 °F 24.3 °F 29.74 in Calm     87% 0.00 in
23:34 27.8 °F 24.4 °F 29.74 in Calm     87% 0.00 in
23:39 27.8 °F 24.4 °F 29.73 in Calm     87% 0.00 in
23:44 27.8 °F 24.4 °F 29.73 in Calm     87% 0.00 in
23:49 27.8 °F 24.4 °F 29.72 in Calm     87% 0.00 in
23:54 27.7 °F 24.6 °F 29.72 in Calm     88% 0.00 in
23:59 27.7 °F 24.6 °F 29.72 in Calm     88% 0.00 in
Buffalo, New York, USA
Compliments of Weather Underground - 2 mb